[[{"header":{"parameterUnit":"m.s-1","parameterCategory":2,"la1":30.2991,"la2":30.254,"lo1":-89.0895,"lo2":-89.0444,"dy":0.0017,"dx":0.0017,"nx":28,"ny":28,"refTime":"2024-02-21T03:00:00:Z","depth":"0","parameterNumber":2,"parameterNumberName":"U-component_of_CURRENTS"},"data":[0,0,0,0,0,0,0,0,0,0,0,0,0,0,0,0,0,0,0,0,0,0,0,0,0,0,0,0,0,0,0,0,0,0,0,0,0,0,0,0,0,0,0,0,0,0,0,0,0,0,0,0,0,0,0,0,0,0,-0.27,-0.27,0,-0.27,-0.27,-0.27,-0.2675,-0.2675,-0.2674,-0.2674,-0.2596,-0.2594,-0.2592,0,0,0,0,0,0,0,0,0,0,0,0,0,-0.2625,-0.2627,-0.27,-0.27,-0.2701,-0.27,-0.27,-0.27,-0.2675,-0.2675,-0.2674,-0.2674,-0.2596,-0.2594,-0.2592,0,0,0,0,0,0,0,0,0,0,0,0,0,-0.2642,-0.2627,-0.27,-0.2691,-0.269,-0.27,-0.27,-0.2699,-0.2675,-0.2675,-0.2674,-0.2674,-0.2597,-0.2594,-0.2592,-0.2586,0,0,-0.2584,-0.2583,0,0,0,0,0,0,0,0,-0.2641,-0.2644,-0.2692,-0.2691,-0.2691,-0.269,-0.2645,-0.2659,-0.2675,-0.2677,-0.2674,-0.2673,-0.2623,-0.2618,-0.2615,-0.2582,-0.2579,-0.2583,-0.2582,-0.2581,-0.258,0,0,0,0,0,0,0,-0.264,-0.2644,-0.2697,-0.2692,-0.2692,-0.2669,-0.2671,-0.2647,-0.2649,-0.2677,-0.2676,-0.2682,-0.2621,-0.2618,-0.2613,-0.2577,-0.2584,-0.2581,-0.258,-0.2579,-0.2549,-0.255,0,0,0,0,0,0,-0.2651,-0.2643,-0.2697,-0.2697,-0.2668,-0.2671,-0.2673,-0.2688,-0.2651,-0.2646,-0.2682,-0.2681,-0.2623,-0.2616,-0.261,-0.2586,-0.2581,-0.2578,-0.2577,-0.2548,-0.2549,-0.255,0,0,0,0,0,0,-0.2649,-0.2656,-0.2697,-0.2672,-0.2676,-0.2674,-0.269,-0.2688,-0.2686,-0.2656,-0.2649,-0.2682,-0.2622,-0.2614,-0.2605,-0.2584,-0.2577,-0.2575,-0.2547,-0.2549,-0.255,-0.2548,0,0,0,0,0,0,-0.2647,-0.2655,-0.2674,-0.2673,-0.2678,-0.271,-0.2691,-0.2689,-0.2692,-0.269,-0.2654,-0.2646,-0.2621,-0.2609,-0.2602,-0.258,-0.2573,-0.2546,-0.2548,-0.2549,-0.2547,-0.2549,-0.2551,0,0,0,0,0,-0.2644,-0.2669,-0.2676,-0.2682,-0.2703,-0.2711,-0.2711,-0.2704,-0.2692,-0.2698,-0.268,-0.2647,-0.2613,-0.2608,-0.2599,-0.2576,-0.2546,-0.2547,-0.2549,-0.2546,-0.2548,-0.255,0,0,0,0,0,0,-0.2654,-0.2669,-0.2676,-0.2707,-0.2715,-0.2708,-0.2703,-0.2709,-0.2699,-0.269,-0.2659,-0.2651,-0.2635,-0.2618,-0.2613,-0.2577,-0.2573,-0.2573,-0.2573,-0.2575,-0.2577,-0.2536,-0.257,0,0,0,0,0,-0.2667,-0.2679,-0.2696,-0.2718,-0.2713,-0.271,-0.2712,-0.2717,-0.2708,-0.2703,-0.2679,-0.2656,-0.2637,-0.2618,-0.2604,-0.2582,-0.2547,-0.2564,-0.2566,-0.2567,-0.2532,-0.2483,-0.2476,-0.2556,-0.2556,-0.2556,0,0,-0.2672,-0.2685,-0.2692,-0.2719,-0.2707,-0.2703,-0.2707,-0.2711,-0.2704,-0.2694,-0.2665,-0.2664,-0.2638,-0.2617,-0.2607,-0.2596,-0.2534,-0.2569,-0.257,-0.2533,-0.2484,-0.2476,-0.2468,-0.2557,-0.2557,-0.2557,0,0,-0.2669,-0.2697,-0.2692,-0.27,-0.2706,-0.2706,-0.271,-0.271,-0.2699,-0.27,-0.2682,-0.2668,-0.2648,-0.2612,-0.2595,-0.2598,-0.2553,-0.2605,-0.2562,-0.2517,-0.2508,-0.25,-0.247,-0.2459,-0.2594,-0.2594,-0.2594,0,-0.2662,-0.2674,-0.2694,-0.269,-0.2676,-0.2703,-0.2682,-0.2689,-0.2693,-0.2667,-0.2692,-0.2644,-0.2634,-0.2574,-0.2581,-0.2593,-0.257,-0.2552,-0.2514,-0.2506,-0.2497,-0.2468,-0.2456,-0.2595,-0.2594,-0.2594,-0.2594,0,-0.2652,-0.2659,-0.2648,-0.2644,-0.2647,-0.2635,-0.2644,-0.2644,-0.2644,-0.2644,-0.2608,-0.2608,-0.257,-0.2577,-0.2578,-0.2513,-0.2519,-0.2529,-0.2499,-0.2488,-0.2459,-0.2447,-0.2595,-0.2595,-0.2595,-0.2595,0,0,-0.2602,-0.2628,-0.2619,-0.2601,-0.2613,-0.2604,-0.2591,-0.2565,-0.2543,-0.2559,-0.251,-0.2497,-0.2502,-0.2482,-0.2484,-0.2445,-0.2393,-0.2461,-0.2458,-0.2412,-0.2298,-0.2236,-0.2216,-0.2398,-0.2395,-0.2393,-0.2309,0,-0.2557,-0.2535,-0.2563,-0.2526,-0.2496,-0.2515,-0.25,-0.2497,-0.2499,-0.2478,-0.2462,-0.2442,-0.2465,-0.2458,-0.2419,-0.241,-0.2356,-0.2414,-0.2329,-0.2326,-0.2256,-0.2197,-0.2102,-0.2012,-0.2296,-0.2294,-0.2293,0,-0.2518,-0.2501,-0.2452,-0.2439,-0.2424,-0.2419,-0.2372,-0.2374,-0.2367,-0.2371,-0.2347,-0.2363,-0.2316,-0.2351,-0.2275,-0.2316,-0.2288,-0.2277,-0.2274,-0.2193,-0.2237,-0.2066,-0.1978,-0.1966,-0.2273,-0.2275,-0.2276,0,-0.2437,-0.242,-0.2367,-0.2361,-0.2358,-0.2327,-0.2327,-0.2324,-0.2315,-0.2303,-0.2305,-0.2265,-0.2256,-0.2212,-0.2206,-0.2238,-0.2124,-0.2169,-0.2072,-0.2069,-0.1953,-0.1944,-0.1816,-0.207,-0.207,-0.207,-0.207,0,-0.2368,-0.2327,-0.2326,-0.2294,-0.2231,-0.226,-0.2214,-0.2218,-0.223,-0.2214,-0.2243,-0.2221,-0.2221,-0.218,-0.2164,-0.207,-0.2084,-0.2023,-0.202,-0.1956,-0.1948,-0.1905,-0.1949,-0.2067,-0.2068,-0.2068,-0.2069,0,-0.2274,-0.2291,-0.2222,-0.2195,-0.2192,-0.2141,-0.2159,-0.2143,-0.2172,-0.2153,-0.2152,-0.2172,-0.2118,-0.21,-0.2036,-0.2007,-0.1895,-0.1893,-0.1825,-0.1813,-0.1713,-0.1762,-0.1629,-0.1583,-0.1765,-0.1762,-0.176,0,-0.2216,-0.2169,-0.2125,-0.2101,-0.2082,-0.2049,-0.2043,-0.209,-0.2093,-0.2115,-0.2098,-0.2065,-0.2008,-0.1897,-0.1833,-0.1744,-0.1778,-0.162,-0.1643,-0.1645,-0.1699,-0.1754,-0.173,-0.1511,-0.1507,-0.1504,-0.1501,0,-0.206,-0.2049,-0.1996,-0.1957,-0.1938,-0.1923,-0.1928,-0.1932,-0.199,-0.198,-0.195,-0.1907,-0.1815,-0.1683,-0.1589,-0.1536,-0.1583,-0.1551,-0.1554,-0.1463,-0.1508,-0.1484,-0.1661,-0.1473,-0.1476,-0.1478,-0.1479,-0.1481,-0.1926,-0.1862,-0.1819,-0.1775,-0.1778,-0.1776,-0.1732,-0.1778,-0.176,-0.1722,-0.1776,-0.167,-0.1589,-0.1431,-0.1377,-0.1268,-0.1355,-0.1238,-0.1292,-0.1343,-0.1293,-0.1406,-0.1219,-0.1221,-0.1222,-0.1223,-0.1224,0,-0.1732,-0.17,-0.1652,-0.1611,-0.1581,-0.1633,-0.1632,-0.1563,-0.1509,-0.1505,-0.1455,-0.1372,-0.1253,-0.1205,-0.111,-0.1041,-0.1036,-0.1024,-0.1078,-0.1062,-0.1136,-0.1117,-0.0897,-0.0897,-0.0897,-0.0897,-0.0897,-0.0897,-0.1639,-0.1528,-0.1516,-0.1413,-0.1408,-0.1327,-0.13,-0.1219,-0.1166,-0.1045,-0.101,-0.0983,-0.1033,-0.1122,-0.1035,-0.097,-0.097,-0.0922,-0.0974,-0.1045,-0.107,-0.1094,-0.1083,-0.0859,-0.0859,-0.0838,-0.0838,-0.0838]},{"header":{"parameterUnit":"m.s-1","parameterCategory":2,"la1":30.2991,"la2":30.254,"lo1":-89.0895,"lo2":-89.0444,"dy":0.0017,"dx":0.0017,"nx":28,"ny":28,"refTime":"2024-02-21T03:00:00:Z","depth":"0","parameterNumber":3,"parameterNumberName":"V-component_of_CURRENTS"},"data":[0,0,0,0,0,0,0,0,0,0,0,0,0,0,0,0,0,0,0,0,0,0,0,0,0,0,0,0,0,0,0,0,0,0,0,0,0,0,0,0,0,0,0,0,0,0,0,0,0,0,0,0,0,0,0,0,0,0,0.0227,0.0228,0,0.0351,0.0352,0.0354,0.0482,0.0483,0.0485,0.0486,0.0629,0.0631,0.0634,0,0,0,0,0,0,0,0,0,0,0,0,0,0.0108,0.011,0.0226,0.0228,0.0229,0.035,0.0352,0.0354,0.0482,0.0483,0.0485,0.0487,0.0628,0.0631,0.0634,0,0,0,0,0,0,0,0,0,0,0,0,0,0.0191,0.0111,0.0226,0.0305,0.0313,0.035,0.0352,0.0355,0.0481,0.0483,0.0486,0.0488,0.0627,0.0631,0.0634,0.0612,0,0,0.0645,0.0647,0,0,0,0,0,0,0,0,0.0187,0.0196,0.0292,0.03,0.0309,0.04,0.0363,0.0441,0.0481,0.0421,0.0486,0.0489,0.055,0.0561,0.0583,0.0619,0.0625,0.0646,0.0648,0.0649,0.065,0,0,0,0,0,0,0,0.0181,0.0191,0.0279,0.0293,0.0303,0.0337,0.0351,0.0378,0.0474,0.0426,0.0435,0.0443,0.0556,0.0579,0.0587,0.0627,0.0646,0.0649,0.0651,0.0652,0.0712,0.0712,0,0,0,0,0,0,0.0156,0.0186,0.0275,0.0282,0.0248,0.0337,0.0353,0.0371,0.0474,0.0491,0.0441,0.0448,0.0572,0.0583,0.0593,0.0594,0.0649,0.0653,0.0655,0.0713,0.0712,0.0711,0,0,0,0,0,0,0.0154,0.0164,0.027,0.0234,0.0249,0.0336,0.0355,0.0372,0.0399,0.0484,0.0503,0.045,0.0574,0.0588,0.062,0.06,0.0654,0.0658,0.0713,0.0712,0.0712,0.0583,0,0,0,0,0,0,0.015,0.0162,0.0164,0.0232,0.025,0.0289,0.0353,0.0373,0.0399,0.041,0.0497,0.0514,0.0577,0.0614,0.0624,0.0606,0.0661,0.0714,0.0713,0.0712,0.0588,0.0578,0.057,0,0,0,0,0,0.0145,0.0145,0.0163,0.0174,0.0252,0.0288,0.03,0.0371,0.0396,0.0403,0.0462,0.0511,0.0615,0.0616,0.0628,0.0611,0.0715,0.0713,0.0712,0.0593,0.058,0.057,0,0,0,0,0,0,0.0097,0.0159,0.0181,0.02,0.0235,0.0308,0.031,0.0353,0.0404,0.0413,0.0495,0.0514,0.054,0.0588,0.0587,0.0627,0.0675,0.0676,0.0581,0.057,0.056,0.053,0.0664,0,0,0,0,0,0.0081,0.0102,0.0154,0.0168,0.0168,0.023,0.025,0.0299,0.0351,0.0377,0.0435,0.0495,0.054,0.0564,0.0615,0.0621,0.0657,0.0622,0.0613,0.0604,0.0589,0.0607,0.0597,0.0707,0.0707,0.0707,0,0,0.0067,0.0102,0.0114,0.0158,0.0181,0.0178,0.0248,0.027,0.0281,0.0379,0.04,0.046,0.0536,0.0559,0.0574,0.0596,0.0596,0.0603,0.0594,0.0584,0.0604,0.0593,0.0583,0.0706,0.0706,0.0706,0,0,0.0024,0.0065,0.0048,0.007,0.01,0.0139,0.0135,0.0193,0.0227,0.0254,0.0329,0.0368,0.0439,0.0486,0.0519,0.0481,0.0546,0.0506,0.0429,0.0446,0.0436,0.0428,0.047,0.0466,0.0499,0.0499,0.0498,0,-0.0009,-0.0006,0.0047,0.0027,0.0035,0.0108,0.0081,0.012,0.0191,0.0205,0.0248,0.034,0.0401,0.0422,0.0421,0.0456,0.0487,0.0462,0.043,0.0423,0.0417,0.0462,0.046,0.0492,0.0493,0.0494,0.0494,0,-0.0075,-0.007,-0.0087,-0.0082,-0.0067,-0.0071,-0.0022,-0.0001,0.0045,0.0095,0.0129,0.0213,0.027,0.0295,0.0349,0.0338,0.0383,0.0414,0.045,0.0397,0.0449,0.0449,0.0483,0.0485,0.0487,0.0489,0,0,-0.0154,-0.014,-0.0145,-0.0154,-0.0121,-0.0112,-0.0115,-0.0091,-0.0084,-0.002,-0.0013,0.0059,0.0112,0.0152,0.0221,0.0236,0.0228,0.0298,0.0302,0.0323,0.0281,0.0335,0.0341,0.025,0.0249,0.0249,0.0337,0,-0.0233,-0.0284,-0.0249,-0.0284,-0.0309,-0.0245,-0.0245,-0.0203,-0.0151,-0.012,-0.0049,-0.0004,0.0056,0.0091,0.0105,0.0214,0.0221,0.0203,0.0343,0.0347,0.0387,0.034,0.0379,0.0462,0.0338,0.0338,0.0338,0,-0.0319,-0.0332,-0.0391,-0.0371,-0.0381,-0.0383,-0.036,-0.0345,-0.0285,-0.0244,-0.0202,-0.0123,-0.0077,-0.002,0.0084,0.0072,0.0152,0.0224,0.023,0.0321,0.04,0.0496,0.0468,0.0591,0.0339,0.0339,0.0339,0,-0.0399,-0.0424,-0.0468,-0.0466,-0.0444,-0.0453,-0.0436,-0.0387,-0.0369,-0.0318,-0.0289,-0.0224,-0.0161,-0.0085,0.0078,0.0078,0.0202,0.0227,0.0342,0.0349,0.043,0.0445,0.0522,0.0264,0.0264,0.0264,0.0263,0,-0.0481,-0.0512,-0.0505,-0.0524,-0.0558,-0.0519,-0.0535,-0.0504,-0.0457,-0.0431,-0.0357,-0.031,-0.0176,-0.007,0.0044,0.0206,0.0176,0.0316,0.0362,0.039,0.04,0.0552,0.0608,0.0267,0.0266,0.0265,0.0265,0,-0.0552,-0.0556,-0.0595,-0.0594,-0.0594,-0.0613,-0.0591,-0.0592,-0.0541,-0.0505,-0.0488,-0.0366,-0.0218,-0.0073,0.0094,0.0187,0.0409,0.0382,0.0421,0.0469,0.0672,0.0719,0.0847,0.0921,0.0506,0.0508,0.0509,0,-0.0595,-0.0624,-0.0646,-0.0666,-0.0666,-0.0682,-0.0687,-0.0642,-0.0625,-0.0523,-0.0503,-0.0358,-0.0226,0.0036,0.0225,0.0423,0.0506,0.0555,0.0545,0.0675,0.0763,0.0789,0.0844,0.0616,0.0619,0.062,0.0622,0,-0.0657,-0.0664,-0.069,-0.0732,-0.0751,-0.0768,-0.0761,-0.0749,-0.0675,-0.0603,-0.0474,-0.036,-0.0108,0.0154,0.0399,0.0508,0.0654,0.0597,0.0716,0.0832,0.0881,0.0979,0.0586,0.0638,0.0636,0.0635,0.0634,0.0633,-0.0691,-0.0722,-0.075,-0.0786,-0.0815,-0.0823,-0.0785,-0.0721,-0.0643,-0.0424,-0.0413,-0.0133,0.0098,0.0463,0.0595,0.0862,0.0813,0.0923,0.0967,0.0978,0.1051,0.0698,0.0809,0.0808,0.0808,0.0807,0.0807,0,-0.0719,-0.075,-0.0796,-0.0831,-0.0864,-0.0862,-0.0802,-0.0677,-0.0496,-0.0285,-0.0093,0.024,0.053,0.0776,0.108,0.122,0.1248,0.1276,0.132,0.1355,0.1036,0.1042,0.1228,0.1227,0.1227,0.1227,0.1227,0.1227,-0.0731,-0.0781,-0.0804,-0.0856,-0.0876,-0.0814,-0.0745,-0.0497,-0.0272,0.0142,0.0442,0.0616,0.0848,0.123,0.1522,0.1547,0.1683,0.1663,0.1729,0.1512,0.1482,0.1453,0.1471,0.1744,0.1744,0.2036,0.2039,0.2042]}],[{"header":{"parameterUnit":"m.s-1","parameterCategory":2,"la1":30.2991,"la2":30.254,"lo1":-89.0895,"lo2":-89.0444,"dy":0.0017,"dx":0.0017,"nx":28,"ny":28,"refTime":"2024-02-21T03:00:00:Z","depth":"2","parameterNumber":2,"parameterNumberName":"U-component_of_CURRENTS"},"data":[0,0,0,0,0,0,0,0,0,0,0,0,0,0,0,0,0,0,0,0,0,0,0,0,0,0,0,0,0,0,0,0,0,0,0,0,0,0,0,0,0,0,0,0,0,0,0,0,0,0,0,0,0,0,0,0,0,0,-0.1858,-0.1859,0,-0.1913,-0.1914,-0.1914,-0.1896,-0.1895,-0.1894,-0.1894,-0.1899,-0.19,-0.1901,0,0,0,0,0,0,0,0,0,0,0,0,0,-0.1783,-0.1784,-0.1858,-0.1859,-0.186,-0.1913,-0.1914,-0.1914,-0.1896,-0.1895,-0.1894,-0.1893,-0.1899,-0.19,-0.1902,0,0,0,0,0,0,0,0,0,0,0,0,0,-0.1822,-0.1784,-0.1858,-0.186,-0.1861,-0.1913,-0.1914,-0.1914,-0.1897,-0.1895,-0.1894,-0.1893,-0.1899,-0.19,-0.1902,-0.1939,0,0,-0.1906,-0.1907,0,0,0,0,0,0,0,0,-0.1819,-0.1824,-0.1859,-0.186,-0.1861,-0.1899,-0.1889,-0.1921,-0.1897,-0.188,-0.1894,-0.1892,-0.1898,-0.1899,-0.1909,-0.1939,-0.194,-0.1907,-0.1907,-0.1908,-0.1909,0,0,0,0,0,0,0,-0.1817,-0.1822,-0.1877,-0.186,-0.1861,-0.1873,-0.1877,-0.1896,-0.1893,-0.1881,-0.1881,-0.1892,-0.1897,-0.1908,-0.1909,-0.194,-0.1906,-0.1908,-0.1909,-0.1909,-0.1976,-0.1977,0,0,0,0,0,0,-0.1815,-0.1819,-0.1876,-0.1879,-0.1839,-0.1876,-0.1879,-0.1886,-0.1894,-0.1895,-0.1893,-0.1891,-0.1906,-0.1907,-0.1909,-0.1932,-0.1908,-0.191,-0.191,-0.1975,-0.1977,-0.1977,0,0,0,0,0,0,-0.1813,-0.1819,-0.1873,-0.1853,-0.1861,-0.1879,-0.1886,-0.1888,-0.1902,-0.1904,-0.1903,-0.1906,-0.1905,-0.1907,-0.192,-0.1933,-0.191,-0.1912,-0.1974,-0.1976,-0.1977,-0.1992,0,0,0,0,0,0,-0.181,-0.1818,-0.182,-0.1853,-0.1862,-0.1901,-0.1888,-0.189,-0.1912,-0.191,-0.1915,-0.1914,-0.1904,-0.1918,-0.1922,-0.1934,-0.1913,-0.1973,-0.1975,-0.1977,-0.199,-0.1993,-0.1996,0,0,0,0,0,-0.1807,-0.1816,-0.1819,-0.1826,-0.1864,-0.1902,-0.1908,-0.1914,-0.1914,-0.1922,-0.1921,-0.1914,-0.1931,-0.192,-0.1925,-0.1938,-0.1973,-0.1975,-0.1976,-0.1989,-0.1993,-0.1996,0,0,0,0,0,0,-0.1787,-0.1816,-0.182,-0.1837,-0.1866,-0.19,-0.1913,-0.1925,-0.1935,-0.193,-0.1928,-0.1927,-0.1942,-0.1944,-0.1933,-0.1962,-0.1951,-0.1953,-0.1958,-0.1962,-0.1965,-0.1953,-0.1914,0,0,0,0,0,-0.1784,-0.1795,-0.183,-0.1846,-0.1862,-0.1892,-0.1909,-0.1917,-0.1934,-0.1938,-0.1944,-0.1949,-0.1957,-0.1961,-0.1968,-0.1991,-0.1972,-0.2002,-0.2005,-0.2007,-0.2001,-0.1984,-0.1984,-0.1984,-0.1984,-0.1984,0,0,-0.1774,-0.1801,-0.1802,-0.1842,-0.1867,-0.1897,-0.1898,-0.1928,-0.1945,-0.1938,-0.196,-0.1963,-0.1966,-0.1981,-0.1989,-0.1981,-0.1998,-0.201,-0.2012,-0.2004,-0.1986,-0.1985,-0.1985,-0.1985,-0.1985,-0.1985,0,0,-0.1785,-0.1795,-0.1813,-0.1839,-0.1883,-0.1903,-0.1915,-0.1953,-0.1957,-0.1986,-0.1978,-0.1982,-0.2012,-0.2002,-0.2004,-0.2033,-0.2015,-0.2047,-0.2052,-0.2035,-0.2034,-0.2034,-0.2006,-0.2003,-0.2047,-0.2048,-0.2048,0,-0.1778,-0.1803,-0.1825,-0.1861,-0.1881,-0.1909,-0.1935,-0.1954,-0.1987,-0.1991,-0.1991,-0.2017,-0.2017,-0.2023,-0.2028,-0.2037,-0.2025,-0.2036,-0.2037,-0.2036,-0.2034,-0.2007,-0.2003,-0.2048,-0.2048,-0.2048,-0.2048,0,-0.1808,-0.1825,-0.1845,-0.1891,-0.1916,-0.1943,-0.1973,-0.1992,-0.2008,-0.2021,-0.2035,-0.2034,-0.2041,-0.205,-0.2048,-0.2048,-0.204,-0.2041,-0.2023,-0.2035,-0.2006,-0.2001,-0.205,-0.2049,-0.2049,-0.2049,0,0,-0.1789,-0.185,-0.1855,-0.1872,-0.1928,-0.195,-0.1983,-0.2011,-0.2022,-0.2046,-0.2053,-0.2066,-0.2061,-0.2062,-0.206,-0.2049,-0.2028,-0.2045,-0.2044,-0.2009,-0.1986,-0.1913,-0.1901,-0.2033,-0.2032,-0.2032,-0.1967,0,-0.1804,-0.1861,-0.1889,-0.1925,-0.1947,-0.1977,-0.2003,-0.2028,-0.2046,-0.2058,-0.2057,-0.2064,-0.2068,-0.2066,-0.2057,-0.2039,-0.2018,-0.2045,-0.1987,-0.1985,-0.1911,-0.1894,-0.1762,-0.1688,-0.1962,-0.1962,-0.1961,0,-0.1809,-0.185,-0.189,-0.1928,-0.1941,-0.1965,-0.1995,-0.2022,-0.2045,-0.2056,-0.2063,-0.2067,-0.2058,-0.2056,-0.2021,-0.2041,-0.2011,-0.1993,-0.1991,-0.1911,-0.1903,-0.1722,-0.1669,-0.1953,-0.1954,-0.1954,-0.1955,0,-0.1771,-0.1833,-0.1862,-0.1879,-0.194,-0.1952,-0.198,-0.2013,-0.2025,-0.2046,-0.205,-0.2053,-0.2041,-0.202,-0.1986,-0.2006,-0.1936,-0.1955,-0.1856,-0.1851,-0.172,-0.1703,-0.1913,-0.1913,-0.1913,-0.1913,-0.1913,0,-0.1758,-0.1773,-0.1842,-0.1858,-0.1875,-0.1926,-0.1939,-0.1967,-0.1999,-0.2002,-0.2036,-0.2026,-0.2032,-0.2,-0.1976,-0.189,-0.1922,-0.1841,-0.1824,-0.1722,-0.1707,-0.1927,-0.1929,-0.1911,-0.1911,-0.1912,-0.1912,0,-0.1694,-0.1749,-0.1773,-0.1839,-0.1854,-0.186,-0.1909,-0.1916,-0.196,-0.1963,-0.1968,-0.1995,-0.195,-0.1935,-0.1887,-0.1855,-0.1796,-0.1755,-0.1628,-0.1597,-0.1728,-0.1732,-0.1644,-0.164,-0.1638,-0.1635,-0.1633,0,-0.1665,-0.1675,-0.1739,-0.1746,-0.1772,-0.1797,-0.181,-0.1877,-0.189,-0.1931,-0.1922,-0.1902,-0.185,-0.1758,-0.1694,-0.1612,-0.1693,-0.1462,-0.1471,-0.1705,-0.1698,-0.1707,-0.1714,-0.1304,-0.13,-0.1296,-0.1293,0,-0.1591,-0.1616,-0.1639,-0.166,-0.1677,-0.1696,-0.1727,-0.1738,-0.1808,-0.1809,-0.1789,-0.1752,-0.167,-0.1523,-0.1437,-0.1385,-0.147,-0.1385,-0.1643,-0.1398,-0.1381,-0.1376,-0.1395,-0.1261,-0.1264,-0.1266,-0.1268,-0.1269,-0.1515,-0.1507,-0.1537,-0.1541,-0.1567,-0.1573,-0.1538,-0.159,-0.1586,-0.1563,-0.1614,-0.1505,-0.1475,-0.1256,-0.1176,-0.1123,-0.1231,-0.1194,-0.1207,-0.1223,-0.1201,-0.118,-0.1018,-0.1019,-0.1021,-0.1022,-0.1024,0,-0.14,-0.1406,-0.1412,-0.1415,-0.1392,-0.1445,-0.1454,-0.14,-0.135,-0.1369,-0.132,-0.1145,-0.1037,-0.1012,-0.0869,-0.0843,-0.0853,-0.0819,-0.0839,-0.0871,-0.0899,-0.0863,-0.0588,-0.0587,-0.0586,-0.0585,0,0,-0.1335,-0.1301,-0.1307,-0.123,-0.1228,-0.1136,-0.1106,-0.1069,-0.1049,-0.0976,-0.0924,-0.0973,-0.0973,-0.0784,-0.0736,-0.0639,-0.0751,-0.0603,-0.0949,-0.1004,-0.1031,-0.1108,-0.1086,0,0,0,0,0]},{"header":{"parameterUnit":"m.s-1","parameterCategory":2,"la1":30.2991,"la2":30.254,"lo1":-89.0895,"lo2":-89.0444,"dy":0.0017,"dx":0.0017,"nx":28,"ny":28,"refTime":"2024-02-21T03:00:00:Z","depth":"2","parameterNumber":3,"parameterNumberName":"V-component_of_CURRENTS"},"data":[0,0,0,0,0,0,0,0,0,0,0,0,0,0,0,0,0,0,0,0,0,0,0,0,0,0,0,0,0,0,0,0,0,0,0,0,0,0,0,0,0,0,0,0,0,0,0,0,0,0,0,0,0,0,0,0,0,0,-0.0376,-0.0375,0,-0.0322,-0.0322,-0.0321,-0.0301,-0.0302,-0.0302,-0.0302,-0.0189,-0.0186,-0.0183,0,0,0,0,0,0,0,0,0,0,0,0,0,-0.0418,-0.0418,-0.0376,-0.0375,-0.0375,-0.0322,-0.0322,-0.0321,-0.0301,-0.0302,-0.0302,-0.0302,-0.019,-0.0186,-0.0183,0,0,0,0,0,0,0,0,0,0,0,0,0,-0.0387,-0.0418,-0.0376,-0.0358,-0.0355,-0.0323,-0.0322,-0.0321,-0.0301,-0.0302,-0.0302,-0.0302,-0.0191,-0.0187,-0.0182,-0.0152,0,0,-0.0168,-0.0166,0,0,0,0,0,0,0,0,-0.0389,-0.0386,-0.0361,-0.0359,-0.0356,-0.0318,-0.0295,-0.0261,-0.0301,-0.0323,-0.0302,-0.0302,-0.0226,-0.0218,-0.0211,-0.0147,-0.0142,-0.0168,-0.0165,-0.0163,-0.0162,0,0,0,0,0,0,0,-0.0391,-0.0388,-0.0356,-0.036,-0.0357,-0.0337,-0.0333,-0.0289,-0.0274,-0.0321,-0.0319,-0.0311,-0.0224,-0.0215,-0.0208,-0.014,-0.0168,-0.0164,-0.0161,-0.0159,-0.0041,-0.0041,0,0,0,0,0,0,-0.0397,-0.039,-0.0358,-0.0354,-0.0372,-0.0336,-0.0332,-0.0331,-0.0276,-0.0268,-0.0311,-0.0311,-0.0223,-0.0213,-0.0203,-0.0165,-0.0163,-0.0159,-0.0156,-0.0042,-0.0041,-0.0041,0,0,0,0,0,0,-0.0399,-0.0395,-0.036,-0.0369,-0.0363,-0.0335,-0.0334,-0.033,-0.0318,-0.0269,-0.026,-0.0304,-0.0223,-0.021,-0.0171,-0.016,-0.0157,-0.0153,-0.0042,-0.0041,-0.0041,-0.0086,0,0,0,0,0,0,-0.04,-0.0396,-0.0401,-0.037,-0.0363,-0.0351,-0.0334,-0.0329,-0.0313,-0.0311,-0.0259,-0.025,-0.0222,-0.0178,-0.0166,-0.0154,-0.0149,-0.0043,-0.0042,-0.0041,-0.0085,-0.0087,-0.0089,0,0,0,0,0,-0.0402,-0.041,-0.0402,-0.0398,-0.037,-0.0351,-0.0346,-0.0327,-0.0312,-0.0315,-0.0278,-0.0251,-0.0165,-0.0174,-0.016,-0.0146,-0.0043,-0.0042,-0.0041,-0.0084,-0.0087,-0.0089,0,0,0,0,0,0,-0.0433,-0.0407,-0.0398,-0.0399,-0.038,-0.0348,-0.0342,-0.0325,-0.0299,-0.0293,-0.0246,-0.0234,-0.0197,-0.0164,-0.0175,-0.011,-0.0098,-0.0095,-0.0136,-0.0138,-0.014,-0.0145,-0.0145,0,0,0,0,0,-0.0441,-0.0442,-0.0412,-0.0415,-0.0401,-0.037,-0.0359,-0.0347,-0.0316,-0.0305,-0.0266,-0.0222,-0.0182,-0.0156,-0.012,-0.008,-0.0049,-0.0061,-0.0063,-0.0065,-0.006,-0.0014,-0.0012,-0.0038,-0.0038,-0.0038,0,0,-0.0455,-0.044,-0.0442,-0.0421,-0.0399,-0.0386,-0.0364,-0.035,-0.0338,-0.0294,-0.0263,-0.0228,-0.0174,-0.0139,-0.0117,-0.0109,-0.0042,-0.0064,-0.0066,-0.006,-0.0013,-0.001,-0.0008,-0.0037,-0.0037,-0.0037,0,0,-0.0478,-0.0465,-0.0469,-0.0452,-0.0424,-0.0403,-0.0399,-0.0364,-0.0347,-0.0317,-0.028,-0.0242,-0.018,-0.0143,-0.0114,-0.0099,-0.0058,-0.0085,-0.0092,-0.0048,-0.0045,-0.0043,-0.0007,-0.0001,-0.0081,-0.0081,-0.0081,0,-0.049,-0.0493,-0.0468,-0.046,-0.0445,-0.041,-0.0404,-0.038,-0.034,-0.032,-0.0314,-0.0222,-0.0181,-0.0125,-0.0124,-0.0103,-0.0075,-0.0091,-0.0051,-0.0048,-0.0045,-0.0008,-0.0001,-0.0083,-0.0083,-0.0083,-0.0083,0,-0.0513,-0.0509,-0.0506,-0.0483,-0.0467,-0.0458,-0.0418,-0.04,-0.0372,-0.0343,-0.0292,-0.0241,-0.0186,-0.0165,-0.0138,-0.0089,-0.0077,-0.0065,-0.005,-0.0045,-0.0007,0.0002,-0.0086,-0.0085,-0.0085,-0.0084,0,0,-0.0544,-0.0526,-0.0523,-0.0517,-0.0478,-0.0468,-0.044,-0.0404,-0.0385,-0.0341,-0.031,-0.024,-0.0213,-0.0178,-0.0136,-0.0093,-0.0049,-0.0071,-0.0068,-0.0043,0.0044,0.0065,0.0076,-0.0033,-0.0032,-0.0031,0.0058,0,-0.0563,-0.0567,-0.0545,-0.054,-0.0533,-0.049,-0.0469,-0.0433,-0.0395,-0.0358,-0.0293,-0.0252,-0.0216,-0.0194,-0.0144,-0.0073,-0.0028,-0.0074,0.0044,0.0047,0.0058,0.0086,0.0075,0.0154,0.0067,0.0068,0.0069,0,-0.0588,-0.0586,-0.0591,-0.0568,-0.0559,-0.0549,-0.0508,-0.0485,-0.0421,-0.0391,-0.0335,-0.0286,-0.021,-0.0191,-0.0061,-0.0094,-0.0027,0.0027,0.0032,0.0075,0.0084,0.0139,0.0173,0.0084,0.0082,0.0081,0.008,0,-0.063,-0.0614,-0.0623,-0.0614,-0.0582,-0.0573,-0.0553,-0.0499,-0.0477,-0.0414,-0.0393,-0.0299,-0.0254,-0.0157,-0.0042,-0.0051,0.0096,0.0097,0.0181,0.0183,0.021,0.0212,0.019,0.019,0.0189,0.0189,0.0189,0,-0.0659,-0.0662,-0.0646,-0.0649,-0.0654,-0.0615,-0.0607,-0.0573,-0.0522,-0.0493,-0.0418,-0.037,-0.0243,-0.0143,-0.0044,0.0099,0.0098,0.0191,0.0214,0.0193,0.0193,0.0161,0.0156,0.0192,0.0192,0.0191,0.019,0,-0.07,-0.0691,-0.0699,-0.0679,-0.0677,-0.0681,-0.0654,-0.0645,-0.0591,-0.0552,-0.0534,-0.0416,-0.028,-0.0148,0.0017,0.0097,0.0227,0.0277,0.024,0.0257,0.0282,0.0274,0.0378,0.038,0.0381,0.0382,0.0383,0,-0.0723,-0.0733,-0.0733,-0.0746,-0.0739,-0.074,-0.074,-0.0691,-0.0671,-0.0571,-0.0551,-0.0416,-0.0302,-0.0059,0.011,0.0291,0.0281,0.0369,0.0355,0.0294,0.0305,0.0295,0.0285,0.0371,0.0372,0.0373,0.0373,0,-0.0757,-0.0757,-0.0764,-0.0797,-0.0809,-0.0818,-0.0807,-0.0798,-0.0725,-0.0665,-0.0551,-0.0452,-0.0214,-0.0001,0.0218,0.0314,0.0337,0.0388,0.0353,0.0319,0.0293,0.0301,0.0291,0.0379,0.0378,0.0378,0.0377,0.0377,-0.0779,-0.0798,-0.0813,-0.0841,-0.0864,-0.0879,-0.088,-0.0846,-0.0794,-0.068,-0.0563,-0.039,-0.0189,0.0136,0.0301,0.0432,0.042,0.0446,0.0442,0.0438,0.0415,0.0392,0.0492,0.0492,0.0493,0.0493,0.0493,0,-0.0801,-0.0822,-0.0856,-0.0889,-0.0924,-0.092,-0.0911,-0.089,-0.0823,-0.0688,-0.0548,-0.0292,-0.0045,0.0149,0.0378,0.0515,0.0494,0.052,0.0474,0.0467,0.0462,0.0438,0.0523,0.0523,0.0524,0.0524,0,0,-0.0813,-0.0847,-0.0865,-0.0928,-0.0955,-0.0976,-0.0967,-0.0913,-0.0822,-0.0669,-0.0516,-0.0312,-0.0055,0.012,0.03,0.0416,0.0393,0.0415,0.0375,0.0292,0.0285,0.0405,0.0361,0,0,0,0,0]}],[{"header":{"parameterUnit":"m.s-1","parameterCategory":2,"la1":30.2991,"la2":30.254,"lo1":-89.0895,"lo2":-89.0444,"dy":0.0017,"dx":0.0017,"nx":28,"ny":28,"refTime":"2024-02-21T03:00:00:Z","depth":"4","parameterNumber":2,"parameterNumberName":"U-component_of_CURRENTS"},"data":[0,0,0,0,0,0,0,0,0,0,0,0,0,0,0,0,0,0,0,0,0,0,0,0,0,0,0,0,0,0,0,0,0,0,0,0,0,0,0,0,0,0,0,0,0,0,0,0,0,0,0,0,0,0,0,0,0,0,-0.1169,-0.1169,0,-0.1225,-0.1225,-0.1226,-0.1253,-0.1252,-0.1252,-0.1252,-0.1302,-0.1303,-0.1305,0,0,0,0,0,0,0,0,0,0,0,0,0,-0.1107,-0.1108,-0.1169,-0.1169,-0.117,-0.1225,-0.1225,-0.1226,-0.1253,-0.1252,-0.1252,-0.1252,-0.1301,-0.1303,-0.1305,0,0,0,0,0,0,0,0,0,0,0,0,0,-0.1145,-0.1108,-0.1169,-0.119,-0.1192,-0.1225,-0.1225,-0.1226,-0.1253,-0.1252,-0.1252,-0.1252,-0.1301,-0.1303,-0.1305,-0.1318,0,0,-0.1311,-0.1312,0,0,0,0,0,0,0,0,-0.1143,-0.1148,-0.1186,-0.1188,-0.1191,-0.1232,-0.1222,-0.1257,-0.1253,-0.123,-0.1252,-0.1252,-0.1278,-0.1282,-0.1292,-0.132,-0.1322,-0.1311,-0.1312,-0.1313,-0.1314,0,0,0,0,0,0,0,-0.114,-0.1145,-0.1191,-0.1187,-0.119,-0.1205,-0.121,-0.1229,-0.1253,-0.1232,-0.1234,-0.124,-0.1279,-0.129,-0.1294,-0.1323,-0.1311,-0.1313,-0.1314,-0.1315,-0.1409,-0.1411,0,0,0,0,0,0,-0.1133,-0.1143,-0.1189,-0.1192,-0.1167,-0.1206,-0.1211,-0.1219,-0.1253,-0.1258,-0.124,-0.1241,-0.1287,-0.1291,-0.1296,-0.1357,-0.1313,-0.1315,-0.1316,-0.1408,-0.141,-0.1411,0,0,0,0,0,0,-0.1131,-0.1136,-0.1187,-0.1169,-0.1176,-0.1206,-0.1215,-0.122,-0.1249,-0.126,-0.1265,-0.1266,-0.1287,-0.1293,-0.1331,-0.1357,-0.1316,-0.1318,-0.1407,-0.1409,-0.141,-0.1451,0,0,0,0,0,0,-0.1129,-0.1135,-0.1148,-0.1168,-0.1177,-0.1218,-0.1215,-0.1221,-0.1252,-0.1255,-0.1283,-0.1287,-0.1288,-0.1328,-0.1333,-0.1359,-0.1319,-0.1405,-0.1407,-0.141,-0.1448,-0.1454,-0.1459,0,0,0,0,0,-0.1127,-0.1141,-0.1148,-0.1155,-0.119,-0.1219,-0.1225,-0.1246,-0.1254,-0.1272,-0.1293,-0.1287,-0.1347,-0.1331,-0.1336,-0.1363,-0.1404,-0.1407,-0.141,-0.1445,-0.1452,-0.1459,0,0,0,0,0,0,-0.1116,-0.1146,-0.1154,-0.1176,-0.1201,-0.1223,-0.1247,-0.1259,-0.129,-0.1301,-0.1305,-0.1311,-0.1353,-0.1355,-0.1337,-0.1398,-0.1374,-0.1378,-0.1399,-0.1406,-0.1412,-0.1418,-0.1321,0,0,0,0,0,-0.112,-0.1144,-0.1168,-0.1187,-0.1204,-0.123,-0.1248,-0.1264,-0.1289,-0.1305,-0.1324,-0.1347,-0.1367,-0.1384,-0.1402,-0.1439,-0.1427,-0.146,-0.1465,-0.147,-0.1479,-0.1487,-0.1494,-0.1421,-0.1421,-0.1421,0,0,-0.1121,-0.1141,-0.1155,-0.1188,-0.1212,-0.1243,-0.1242,-0.128,-0.1308,-0.1305,-0.1358,-0.137,-0.1381,-0.142,-0.1439,-0.1427,-0.1482,-0.1474,-0.1477,-0.1485,-0.1491,-0.1498,-0.1504,-0.1423,-0.1422,-0.1422,0,0,-0.1133,-0.1156,-0.1181,-0.1208,-0.1249,-0.1267,-0.1282,-0.132,-0.1344,-0.1389,-0.1393,-0.1424,-0.146,-0.1473,-0.1482,-0.1532,-0.151,-0.1539,-0.1575,-0.1583,-0.1589,-0.1594,-0.157,-0.1573,-0.1543,-0.1543,-0.1543,0,-0.1136,-0.1168,-0.1192,-0.1225,-0.1256,-0.128,-0.1318,-0.1343,-0.1388,-0.1414,-0.1413,-0.1475,-0.1485,-0.1526,-0.1544,-0.1545,-0.1535,-0.1546,-0.1589,-0.1594,-0.1599,-0.1574,-0.1576,-0.1545,-0.1545,-0.1545,-0.1544,0,-0.1161,-0.1199,-0.1219,-0.1269,-0.1303,-0.1342,-0.138,-0.1418,-0.1448,-0.1471,-0.1527,-0.1541,-0.1576,-0.1584,-0.1581,-0.1623,-0.1599,-0.1593,-0.1569,-0.1608,-0.1579,-0.1581,-0.1548,-0.1548,-0.1547,-0.1546,0,0,-0.114,-0.1222,-0.1232,-0.127,-0.1336,-0.1366,-0.1422,-0.1477,-0.1512,-0.1556,-0.1599,-0.164,-0.1648,-0.1659,-0.166,-0.167,-0.1685,-0.165,-0.165,-0.1621,-0.1681,-0.1557,-0.1546,-0.1686,-0.1688,-0.1688,-0.1641,0,-0.1157,-0.1227,-0.1266,-0.1338,-0.138,-0.1431,-0.1477,-0.1531,-0.1569,-0.1612,-0.164,-0.1675,-0.1675,-0.169,-0.1706,-0.1691,-0.1695,-0.1697,-0.1653,-0.1651,-0.1531,-0.1546,-0.1692,-0.1642,-0.1642,-0.1643,-0.1643,0,-0.1164,-0.1217,-0.1293,-0.1383,-0.1407,-0.1453,-0.1538,-0.1581,-0.1642,-0.167,-0.1714,-0.1725,-0.1757,-0.1743,-0.1748,-0.1749,-0.1725,-0.1708,-0.1705,-0.1579,-0.1531,-0.16,-0.1646,-0.1645,-0.1645,-0.1645,-0.1645,0,-0.1135,-0.1233,-0.1299,-0.1332,-0.1433,-0.1482,-0.1533,-0.1604,-0.1638,-0.1702,-0.1722,-0.1766,-0.1773,-0.1775,-0.1741,-0.175,-0.1721,-0.1723,-0.1589,-0.1578,-0.1687,-0.1682,-0.1727,-0.1727,-0.1727,-0.1727,-0.1728,0,-0.1127,-0.1182,-0.1295,-0.1331,-0.1404,-0.148,-0.1547,-0.16,-0.1663,-0.1687,-0.1745,-0.1749,-0.1784,-0.1767,-0.1747,-0.1657,-0.1724,-0.1592,-0.1562,-0.1702,-0.17,-0.1686,-0.1682,-0.1726,-0.1726,-0.1726,-0.1727,0,-0.1079,-0.1155,-0.1234,-0.1355,-0.1392,-0.1444,-0.1541,-0.1572,-0.1644,-0.1673,-0.169,-0.1736,-0.1705,-0.1706,-0.1684,-0.1634,-0.1579,-0.1532,-0.1659,-0.1637,-0.1432,-0.1431,-0.1381,-0.1377,-0.1373,-0.1369,-0.1367,0,-0.1055,-0.1096,-0.1231,-0.127,-0.1328,-0.141,-0.1451,-0.1548,-0.1572,-0.164,-0.1635,-0.1639,-0.1648,-0.1505,-0.1535,-0.147,-0.1457,-0.1424,-0.1456,-0.1422,-0.1399,-0.1404,-0.1408,-0.136,-0.1359,-0.1358,-0.1357,0,-0.1009,-0.1069,-0.1132,-0.1208,-0.1269,-0.1323,-0.1391,-0.14,-0.1488,-0.1568,-0.1522,-0.1492,-0.1445,-0.1413,-0.136,-0.1327,-0.1448,-0.1382,-0.1391,-0.1421,-0.1396,-0.1378,-0.1387,-0.1343,-0.1345,-0.1347,-0.1348,0,-0.0964,-0.0992,-0.1071,-0.1124,-0.1193,-0.1208,-0.1263,-0.1281,-0.1315,-0.14,-0.1377,-0.1379,-0.1422,-0.1336,-0.1296,-0.1241,-0.1232,-0.1207,-0.1225,-0.1241,-0.1217,-0.1166,-0.1012,0,0,0,0,0,-0.0908,-0.0925,-0.0972,-0.1022,-0.1081,-0.1108,-0.1203,-0.1257,-0.1349,-0.1275,-0.1321,-0.127,-0.1201,-0.1213,-0.1122,-0.1238,-0.1242,-0.1131,-0.1225,-0.1267,-0.1283,-0.1269,0,0,0,0,0,0,-0.0867,-0.0914,-0.0937,-0.0915,-0.0916,-0.0959,-0.1009,-0.1076,-0.1051,-0.1146,-0.1109,-0.1179,-0.1127,-0.1204,-0.1083,-0.1086,-0.1119,-0.1146,-0.1143,-0.1258,-0.1272,-0.1285,-0.1276,0,0,0,0,0]},{"header":{"parameterUnit":"m.s-1","parameterCategory":2,"la1":30.2991,"la2":30.254,"lo1":-89.0895,"lo2":-89.0444,"dy":0.0017,"dx":0.0017,"nx":28,"ny":28,"refTime":"2024-02-21T03:00:00:Z","depth":"4","parameterNumber":3,"parameterNumberName":"V-component_of_CURRENTS"},"data":[0,0,0,0,0,0,0,0,0,0,0,0,0,0,0,0,0,0,0,0,0,0,0,0,0,0,0,0,0,0,0,0,0,0,0,0,0,0,0,0,0,0,0,0,0,0,0,0,0,0,0,0,0,0,0,0,0,0,-0.0358,-0.0358,0,-0.0352,-0.0352,-0.0352,-0.0359,-0.0359,-0.0359,-0.0359,-0.0319,-0.0318,-0.0317,0,0,0,0,0,0,0,0,0,0,0,0,0,-0.035,-0.035,-0.0358,-0.0358,-0.0358,-0.0352,-0.0352,-0.0352,-0.0358,-0.0359,-0.0359,-0.0359,-0.032,-0.0318,-0.0317,0,0,0,0,0,0,0,0,0,0,0,0,0,-0.035,-0.035,-0.0358,-0.0361,-0.0361,-0.0352,-0.0352,-0.0352,-0.0358,-0.0359,-0.0359,-0.036,-0.032,-0.0318,-0.0317,-0.0297,0,0,-0.0311,-0.031,0,0,0,0,0,0,0,0,-0.035,-0.035,-0.036,-0.036,-0.0361,-0.0356,-0.0334,-0.0332,-0.0358,-0.0359,-0.0359,-0.036,-0.0328,-0.0326,-0.0324,-0.0295,-0.0293,-0.031,-0.0309,-0.0308,-0.0308,0,0,0,0,0,0,0,-0.035,-0.035,-0.0356,-0.036,-0.036,-0.0353,-0.0354,-0.0334,-0.0341,-0.0359,-0.036,-0.0359,-0.0328,-0.0326,-0.0323,-0.0292,-0.031,-0.0309,-0.0308,-0.0307,-0.0246,-0.0245,0,0,0,0,0,0,-0.0352,-0.035,-0.0356,-0.0355,-0.0356,-0.0353,-0.0354,-0.0357,-0.0342,-0.034,-0.0359,-0.0359,-0.0329,-0.0326,-0.0322,-0.0302,-0.0308,-0.0307,-0.0305,-0.0246,-0.0246,-0.0245,0,0,0,0,0,0,-0.0351,-0.0352,-0.0356,-0.0352,-0.0352,-0.0353,-0.0357,-0.0357,-0.036,-0.0342,-0.034,-0.0363,-0.0329,-0.0325,-0.0311,-0.03,-0.0306,-0.0304,-0.0247,-0.0246,-0.0245,-0.0258,0,0,0,0,0,0,-0.0351,-0.0352,-0.036,-0.0353,-0.0353,-0.0359,-0.0356,-0.0357,-0.0359,-0.036,-0.0344,-0.0341,-0.0329,-0.0314,-0.0309,-0.0297,-0.0302,-0.0247,-0.0246,-0.0246,-0.0258,-0.0258,-0.0257,0,0,0,0,0,-0.0351,-0.0359,-0.0361,-0.0361,-0.0362,-0.0359,-0.0359,-0.036,-0.0359,-0.0364,-0.0352,-0.0342,-0.0305,-0.0313,-0.0307,-0.0294,-0.0248,-0.0247,-0.0246,-0.0258,-0.0258,-0.0257,0,0,0,0,0,0,-0.0364,-0.0361,-0.0362,-0.037,-0.0369,-0.0361,-0.0364,-0.0362,-0.0357,-0.0357,-0.0339,-0.0335,-0.0318,-0.0304,-0.0313,-0.0273,-0.0273,-0.0271,-0.0284,-0.0284,-0.0283,-0.0276,-0.0301,0,0,0,0,0,-0.0369,-0.0373,-0.0369,-0.0377,-0.0375,-0.037,-0.037,-0.0369,-0.0361,-0.036,-0.0347,-0.0328,-0.0307,-0.0296,-0.028,-0.0258,-0.023,-0.0245,-0.0244,-0.0244,-0.0234,-0.0179,-0.0173,-0.0242,-0.0242,-0.0242,0,0,-0.0378,-0.0375,-0.038,-0.038,-0.0377,-0.0376,-0.0371,-0.0372,-0.0368,-0.0354,-0.0345,-0.0329,-0.0303,-0.0283,-0.0272,-0.027,-0.0213,-0.0243,-0.0243,-0.0233,-0.0177,-0.0171,-0.0164,-0.0241,-0.0241,-0.0241,0,0,-0.0392,-0.0393,-0.0401,-0.0396,-0.0392,-0.0386,-0.0387,-0.0379,-0.0374,-0.0365,-0.0348,-0.0322,-0.0303,-0.0273,-0.0256,-0.0241,-0.0216,-0.024,-0.0229,-0.0176,-0.017,-0.0164,-0.0132,-0.0123,-0.0237,-0.0237,-0.0237,0,-0.0402,-0.041,-0.0403,-0.0403,-0.0399,-0.039,-0.0393,-0.0383,-0.0372,-0.0358,-0.0366,-0.0311,-0.0292,-0.0246,-0.0244,-0.0238,-0.0215,-0.0235,-0.0175,-0.0168,-0.0162,-0.0131,-0.0121,-0.0237,-0.0237,-0.0237,-0.0237,0,-0.0418,-0.0423,-0.0424,-0.042,-0.0416,-0.0416,-0.04,-0.0392,-0.0384,-0.0368,-0.0331,-0.0302,-0.0267,-0.0255,-0.0246,-0.0189,-0.0191,-0.0185,-0.0177,-0.0156,-0.0125,-0.0114,-0.0238,-0.0238,-0.0237,-0.0237,0,0,-0.0437,-0.0437,-0.0436,-0.0438,-0.0423,-0.0422,-0.0406,-0.0386,-0.0372,-0.0349,-0.0322,-0.0276,-0.0256,-0.0234,-0.0211,-0.0162,-0.0104,-0.0158,-0.0155,-0.0128,-0.0002,-0.0022,-0.0012,-0.009,-0.0088,-0.0087,-0.0003,0,-0.045,-0.0461,-0.0451,-0.0455,-0.0458,-0.0435,-0.0422,-0.0399,-0.0377,-0.0349,-0.0296,-0.0268,-0.0248,-0.0235,-0.018,-0.0128,-0.0074,-0.0128,-0.0024,-0.0021,-0.0042,0.0001,-0.008,0.0005,0.0007,0.0009,0.0011,0,-0.0465,-0.0469,-0.0482,-0.0472,-0.047,-0.047,-0.0442,-0.0429,-0.0378,-0.0358,-0.0307,-0.0274,-0.0202,-0.0194,-0.0071,-0.011,-0.0052,-0.0007,-0.0003,-0.0006,-0.002,-0.0016,0.003,0.0029,0.0027,0.0026,0.0025,0,-0.0485,-0.0486,-0.05,-0.0497,-0.0486,-0.0483,-0.0474,-0.0434,-0.0419,-0.0365,-0.0348,-0.0259,-0.0224,-0.0129,-0.0043,-0.0054,0.0088,0.0084,0.0128,0.0126,0.0122,0.0115,0.0189,0.0189,0.0189,0.0189,0.0189,0,-0.0496,-0.0506,-0.0516,-0.0522,-0.0533,-0.0511,-0.0509,-0.0485,-0.0445,-0.0421,-0.0358,-0.0317,-0.0205,-0.0118,-0.0034,0.0077,0.0101,0.0145,0.0157,0.0112,0.0103,0.0129,0.0121,0.0192,0.0191,0.0191,0.019,0,-0.0514,-0.0522,-0.054,-0.0542,-0.0547,-0.0557,-0.055,-0.0541,-0.05,-0.0467,-0.0452,-0.0354,-0.0239,-0.0127,0.0023,0.0078,0.0189,0.0225,0.016,0.0164,0.0188,0.0178,0.0285,0.0285,0.0285,0.0285,0.0286,0,-0.0524,-0.0538,-0.0566,-0.0586,-0.0593,-0.0605,-0.0613,-0.0579,-0.0562,-0.0484,-0.0464,-0.0355,-0.028,-0.0078,0.0033,0.0196,0.0216,0.0261,0.0241,0.0202,0.0204,0.0193,0.0184,0.0286,0.0286,0.0286,0.0286,0,-0.054,-0.0557,-0.0574,-0.062,-0.0644,-0.0661,-0.0663,-0.065,-0.0597,-0.0565,-0.0455,-0.0346,-0.0219,-0.0072,0.0049,0.0166,0.0223,0.0264,0.0264,0.0246,0.0205,0.0203,0.0194,0.0287,0.0287,0.0287,0.0287,0,-0.0552,-0.0574,-0.0607,-0.0641,-0.0682,-0.07,-0.0696,-0.0655,-0.0625,-0.0524,-0.0488,-0.034,-0.0251,-0.0086,0.0031,0.0136,0.016,0.0182,0.0187,0.0187,0.0127,0.0059,0.0123,0,0,0,0,0,-0.0557,-0.0584,-0.0624,-0.0664,-0.0708,-0.0726,-0.072,-0.0701,-0.0646,-0.0571,-0.0522,-0.0394,-0.0206,-0.0119,-0.0013,0.0015,0.0158,0.0138,0.018,0.0291,0.029,0.0233,0,0,0,0,0,0,-0.0562,-0.0603,-0.0622,-0.0677,-0.0709,-0.0747,-0.0743,-0.0706,-0.0646,-0.0576,-0.0467,-0.0392,-0.0205,-0.0269,-0.002,0.0013,0.0049,0.0234,0.0236,0.0291,0.029,0.029,0.0232,0,0,0,0,0]}]]